EW5969 Waldorf MD US current weather conditions

sailwx.info

Wind from 300 at 6 knots gusting 15

Air temperature 7.2° C
Dewpoint -3.3° C

Last reported at 2019-Dec-05 19:01 UTC.
Time now 2019-Dec-05 19:18 UTC

Location: N 38°39' W 076°56'.
View on Google Maps.

See reports from other nearby stations

  
Tides and Currents Weather Stations Pressure Air Temp Water Temp Dewpoint Dewpoint Depression Visibility Wind Speed Wind Dir Waves Ship Positions
date/time (UTC)wind fromknots sea level pressurealtimeterstation pressurevisibilityair tempwater tempwave heightnotes
2019-Dec-05 19:01 300 6 gusting 15 7.2
2019-Dec-05 18:47 311 6 gusting 12 7.2
2019-Dec-05 18:31 005 5 gusting 16 7.2
2019-Dec-05 18:16 350 8 gusting 15 7.2
2019-Dec-05 18:01 355 8 gusting 13 6.7
2019-Dec-05 17:46 005 4 gusting 14 6.7
2019-Dec-05 17:31 311 8 gusting 19 7.2
2019-Dec-05 17:16 312 9 gusting 21 6.7
2019-Dec-05 17:00 315 12 gusting 18 6.7
2019-Dec-05 16:46 294 10 gusting 16 6.1
2019-Dec-05 16:30 326 11 gusting 17 6.1
2019-Dec-05 16:15 318 12 gusting 17 6.7
2019-Dec-05 16:00 328 7 gusting 17 6.7
2019-Dec-05 15:45 322 6 gusting 16 5.6
2019-Dec-05 15:30 330 7 gusting 14 5.6
2019-Dec-05 15:15 288 9 gusting 14 5.6
2019-Dec-05 15:00 005 4 gusting 13 5.6
2019-Dec-05 14:45 336 7 gusting 17 5.6
2019-Dec-05 14:30 315 5 gusting 12 5.6
2019-Dec-05 14:15 313 5 gusting 9 5.0
2019-Dec-05 14:00 312 1 gusting 8 4.4
2019-Dec-05 13:45 297 3 gusting 9 3.9
2019-Dec-05 13:30 323 3 gusting 6 3.9
2019-Dec-05 13:18 303 3 gusting 7 3.3
2019-Dec-05 13:02 301 3.3
2019-Dec-05 12:46 309 3.3
2019-Dec-05 12:31 317 1 gusting 7 3.3
2019-Dec-05 12:17 310 3 gusting 8 3.3
2019-Dec-05 12:01 323 3 gusting 9 3.3
2019-Dec-05 11:46 332 6 gusting 9 3.3
2019-Dec-05 11:31 326 6 gusting 13 3.3
2019-Dec-05 11:16 323 6 gusting 8 3.3
2019-Dec-05 11:01 311 2 gusting 11 3.9
2019-Dec-05 10:45 315 4 gusting 7 3.3
2019-Dec-05 10:30 333 5 gusting 10 3.3
2019-Dec-05 10:15 338 4 gusting 9 3.9
2019-Dec-05 10:00 306 3 gusting 6 3.9
2019-Dec-05 09:46 322 3 gusting 11 3.9
2019-Dec-05 09:30 333 5 gusting 13 3.9
2019-Dec-05 09:15 321 3 gusting 9 3.9
2019-Dec-05 09:00 327 6 gusting 10 3.9
2019-Dec-05 08:45 339 6 gusting 13 3.9
2019-Dec-05 08:30 328 5 gusting 11 3.9
2019-Dec-05 08:15 343 7 gusting 13 3.9
2019-Dec-05 08:00 315 6 gusting 13 3.3
2019-Dec-05 07:45 312 5 gusting 11 3.3
2019-Dec-05 07:30 343 6 gusting 16 3.3
2019-Dec-05 07:03 320 6 gusting 10 5.0
2019-Dec-05 06:47 341 4 gusting 7 5.0
2019-Dec-05 06:32 320 4 gusting 8 5.0
2019-Dec-05 06:16 321 4 gusting 6 5.0
2019-Dec-05 06:02 338 3 gusting 6 5.0
2019-Dec-05 05:47 331 3 gusting 6 5.0
2019-Dec-05 05:31 338 7 gusting 15 5.0
2019-Dec-05 05:16 330 4 gusting 10 4.4
2019-Dec-05 05:01 339 3 gusting 8 3.3
2019-Dec-05 04:47 024 1 gusting 5 2.2
2019-Dec-05 04:31 311 1.7
2019-Dec-05 04:16 311 1.7
2019-Dec-05 04:01 311 1.7
2019-Dec-05 03:46 311 1.7
2019-Dec-05 03:31 311 2.2
2019-Dec-05 03:16 311 2.8
2019-Dec-05 03:01 311 3.3
2019-Dec-05 02:45 311 3.9
2019-Dec-05 02:31 311 4.4
2019-Dec-05 02:16 311 5.0
2019-Dec-05 02:01 311 5.6
2019-Dec-05 01:46 311 5.6
2019-Dec-05 01:31 311 6.1
2019-Dec-05 01:16 311 6.1
2019-Dec-05 01:01 311 0 gusting 5 6.7
2019-Dec-05 00:46 311 6.7
2019-Dec-05 00:30 332 1 gusting 6 6.7
2019-Dec-05 00:16 332 0 gusting 5 6.7
2019-Dec-05 00:00 323 2 gusting 6 7.2
2019-Dec-04 23:45 341 2 gusting 8 7.2
2019-Dec-04 23:30 327 4 gusting 10 7.2
2019-Dec-04 23:15 333 1 gusting 6 7.2
2019-Dec-04 23:00 343 0 gusting 5 7.2
2019-Dec-04 22:45 315 1 gusting 4 7.8
2019-Dec-04 22:30 055 7.2
2019-Dec-04 22:15 055 7.8
2019-Dec-04 22:00 056 7.8
2019-Dec-04 21:45 198 8.3
2019-Dec-04 21:31 321 8.3
2019-Dec-04 21:15 254 0 gusting 3 8.9
2019-Dec-04 21:00 254 8.9
2019-Dec-04 20:45 254 0 gusting 5 8.9
2019-Dec-04 20:30 265 0 gusting 6 9.4
2019-Dec-04 20:15 257 3 gusting 6 10.0
2019-Dec-04 20:00 270 4 gusting 9 10.0
2019-Dec-04 19:45 259 2 gusting 8 10.0
2019-Dec-04 19:30 237 2 gusting 6 9.4
2019-Dec-04 19:15 278 2 gusting 7 8.9
2019-Dec-04 19:00 304 4 gusting 9 8.9
2019-Dec-04 18:45 262 6 gusting 13 8.3
2019-Dec-04 18:30 246 6 gusting 11 8.3
2019-Dec-04 18:02 286 5 gusting 9 8.3
2019-Dec-04 17:46 245 4 gusting 8 7.8
2019-Dec-04 17:31 252 4 gusting 7 7.8
2019-Dec-04 17:17 250 4 gusting 7 7.2
2019-Dec-04 17:01 261 5 gusting 12 6.7
2019-Dec-04 16:47 280 4 gusting 8 6.1
2019-Dec-04 16:31 268 3 gusting 8 5.6
2019-Dec-04 16:16 234 1 gusting 7 5.6
2019-Dec-04 16:00 231 1 gusting 6 5.0
2019-Dec-04 15:45 255 5 gusting 8 5.0
2019-Dec-04 15:17 245 0 gusting 5 4.4
2019-Dec-04 15:02 246 1 gusting 6 3.9
2019-Dec-04 14:46 260 1 gusting 5 3.3
2019-Dec-04 14:31 272 0 gusting 6 3.3
2019-Dec-04 14:16 286 0 gusting 4 3.3
2019-Dec-04 14:01 314 1 gusting 4 2.8
2019-Dec-04 13:46 314 2.8
2019-Dec-04 13:31 314 2.2
2019-Dec-04 13:16 314 1.7
2019-Dec-04 13:01 314 0 gusting 2 1.7
2019-Dec-04 12:45 314 1.1
2019-Dec-04 12:31 314 1.1
2019-Dec-04 12:15 314 1.1
2019-Dec-04 12:00 314 1.7
2019-Dec-04 11:45 314 1 gusting 3 1.7
2019-Dec-04 11:30 314 1.7
2019-Dec-04 11:15 355 1.1
2019-Dec-04 11:01 355 1.1
2019-Dec-04 10:45 355 1.1
2019-Dec-04 10:30 355 1.7
2019-Dec-04 10:16 355 1.7
2019-Dec-04 10:00 355 1.7
2019-Dec-04 09:45 355 1.7
2019-Dec-04 09:30 355 2.2
2019-Dec-04 09:15 355 1.7
2019-Dec-04 09:00 355 1.7
2019-Dec-04 08:45 355 1.7
2019-Dec-04 08:30 355 1.1
2019-Dec-04 08:15 355 1.1
2019-Dec-04 08:00 355 0.6
2019-Dec-04 07:45 355 0.6
2019-Dec-04 07:30 355 -0.0
2019-Dec-04 07:15 355 -0.0
2019-Dec-04 07:00 355 0.6
2019-Dec-04 06:45 355 0.6
2019-Dec-04 06:30 355 0.6
2019-Dec-04 06:15 355 0.6
2019-Dec-04 06:02 355 0.6
2019-Dec-04 05:47 355 0.6
2019-Dec-04 05:31 349 1.1
2019-Dec-04 05:16 349 1.1
2019-Dec-04 05:01 349 1.1
2019-Dec-04 04:46 349 1.7
2019-Dec-04 04:31 349 1.7
2019-Dec-04 04:16 349 1.7
2019-Dec-04 04:01 349 1.7
2019-Dec-04 03:46 349 1.7
2019-Dec-04 03:30 349 1.7
2019-Dec-04 03:16 349 1.7
2019-Dec-04 03:02 349 1.7
2019-Dec-04 02:46 349 2.2
2019-Dec-04 02:31 349 2.2
2019-Dec-04 02:16 349 2.2
2019-Dec-04 02:01 349 1.7
2019-Dec-04 01:47 349 1.7
2019-Dec-04 01:31 349 1.7
2019-Dec-04 01:16 349 1.7
2019-Dec-04 01:01 349 1.7
2019-Dec-04 00:46 349 2.8
2019-Dec-04 00:31 349 3.3
2019-Dec-04 00:16 349 3.3
2019-Dec-04 00:01 349 3.3
2019-Dec-03 23:45 349 3.9
2019-Dec-03 23:31 349 3.9
2019-Dec-03 23:15 349 4.4
2019-Dec-03 23:02 349 4.4
2019-Dec-03 22:45 326 0 gusting 2 5.0
2019-Dec-03 22:30 326 5.0
2019-Dec-03 22:15 345 1 gusting 5 5.6
2019-Dec-03 22:00 346 3 gusting 5 5.6
2019-Dec-03 21:46 350 6.1
2019-Dec-03 21:30 011 2 gusting 11 6.1
2019-Dec-03 21:16 344 2 gusting 7 6.7
2019-Dec-03 21:00 355 4 gusting 13 6.7
2019-Dec-03 20:45 342 6 gusting 9 7.2
2019-Dec-03 20:30 319 5 gusting 16 7.2
2019-Dec-03 20:15 346 6 gusting 14 7.8
2019-Dec-03 20:00 021 8 gusting 15 7.8
2019-Dec-03 19:45 298 9 gusting 13 7.8
2019-Dec-03 19:30 337 9 gusting 15 7.8
2019-Dec-03 19:15 346 6 gusting 13 8.3
2019-Dec-03 19:00 312 10 gusting 18 8.3